Location: Gourdan-Polignan
(43.0709°N, 0.5748°E)
Time: 12:04:38
(UTC+00:00)

NOSS 3-3 (C) - Pass Details

Date: 15 May 2026
Orbit: 697 x 1516 km, 63.4° (Epoch: 11 January)

Event Time Altitude Azimuth Distance (km) Brightness Sun altitude
Rises 20:27:06 0° 220° (SW) 3,121 6.7 -11.8°
Reaches altitude 10° 20:29:19 10° 222° (SW) 2,252 6.0 -12.1°
Maximum altitude 20:34:24 74° 308° (NW) 854 3.9 -12.8°
Drops below altitude 10° 20:40:29 10° 34° (NE) 2,670 6.4 -13.6°
Sets 20:43:19 0° 36° (NE) 3,749 7.2 -14.0°
